Theta_e
343 346 345 346 346 348 349 351 354 355 356 342 340 354 357 361 363 365 364 365 365 361 357 353 349 351 356 354 354 353 353 355 354 349 346 354 355 353 355 352 353 353 353 354 353 352 352 353 352 350 349 349 350 351 353 352 348 346 343 342 341 341 342 344 345 346 347 347 348 349 350 351 351 350 350 349 349 349 351 350 351 351 350 351 352 352 351 351 351 351 350 350 349 348 349 349 348
346 347 345 347 348 351 350 351 353 346 347 339 340 356 359 365 365 365 364 364 365 359 354 350 348 352 354 353 350 350 352 351 351 351 351 354 353 354 354 353 354 353 354 354 352 352 353 353 352 351 351 351 352 352 351 347 344 343 343 343 343 345 346 347 348 349 351 351 351 352 352 352 351 349 349 350 350 351 351 351 351 350 350 350 352 352 350 350 351 350 350 351 350 349 349 348 348
346 346 347 349 350 353 352 353 349 339 340 337 342 360 362 367 368 365 363 362 361 355 350 349 350 354 353 354 353 353 352 348 347 348 351 353 353 354 353 354 354 354 354 354 353 353 353 353 353 353 352 352 351 349 346 345 344 343 344 345 347 348 349 349 351 352 352 351 352 352 351 351 351 350 350 351 351 351 351 351 350 350 350 351 351 352 351 350 350 350 349 351 351 349 349 348 348
347 348 348 350 351 354 356 356 351 341 339 337 345 362 365 367 366 363 364 360 357 350 350 351 355 357 356 356 353 354 351 348 349 349 351 353 353 353 354 354 354 354 354 354 354 353 353 351 350 350 350 350 348 346 345 346 344 344 346 348 349 350 350 351 352 353 352 350 351 351 351 350 350 351 351 351 351 351 351 351 350 350 350 350 351 351 351 350 350 350 349 351 351 349 349 348 348
348 349 350 353 354 356 358 357 354 345 342 342 349 364 366 364 362 361 363 357 354 350 352 354 356 357 356 356 353 354 350 348 350 351 352 353 353 352 353 353 353 354 354 354 353 353 352 350 348 348 349 348 345 345 346 346 344 346 349 350 351 351 352 352 353 353 351 350 350 351 351 351 351 351 350 350 350 350 349 349 350 349 349 350 349 350 350 349 350 350 350 351 350 350 349 348 347
350 351 351 353 355 357 356 351 347 344 350 354 356 363 365 362 361 361 362 357 354 351 354 355 355 355 355 354 351 353 350 349 350 351 354 353 353 353 353 353 353 353 354 355 354 354 352 350 350 349 348 345 344 345 347 347 346 349 351 351 351 352 352 352 353 353 351 350 351 351 351 351 351 350 349 349 350 350 349 347 348 348 349 349 348 349 350 350 350 349 349 350 350 350 350 349 348
351 352 352 354 357 357 356 346 342 346 354 361 360 363 365 362 360 359 361 359 356 354 356 354 351 354 356 353 352 352 350 351 350 351 354 353 352 353 353 352 352 352 353 354 356 355 351 349 350 348 345 343 344 346 347 348 349 350 352 352 350 351 351 351 352 352 351 350 351 352 351 351 351 350 349 349 349 349 349 348 347 348 350 349 347 349 350 350 349 348 349 349 350 350 350 350 349
352 353 353 358 361 358 355 346 347 352 355 359 360 362 363 363 360 359 361 360 360 358 357 355 351 358 357 353 355 354 351 351 351 352 353 353 352 352 352 352 352 352 353 355 356 354 350 349 350 344 341 343 346 348 348 348 351 352 352 351 349 349 350 350 352 353 352 351 352 352 351 350 350 350 350 349 350 349 349 348 348 349 349 349 348 349 350 350 348 348 349 348 349 349 349 349 349
353 356 356 359 362 356 350 348 350 356 358 360 361 362 363 362 361 360 361 361 361 359 358 355 352 359 358 355 355 353 351 353 351 352 352 352 352 352 352 352 352 352 353 355 355 354 351 350 350 343 340 344 347 348 347 349 352 353 353 350 349 349 349 349 351 353 352 352 352 351 350 350 350 349 349 349 350 349 348 347 348 349 347 348 349 349 350 349 348 348 349 348 348 349 348 348 349
354 357 358 360 359 348 342 345 350 357 362 362 362 363 362 361 362 361 360 361 361 359 357 353 353 358 357 357 355 351 352 353 352 352 352 352 352 352 352 351 353 353 353 353 354 354 352 350 349 344 341 344 347 347 347 350 353 353 353 351 349 348 349 349 351 352 352 351 351 351 351 351 351 349 348 349 349 348 348 347 347 348 348 347 348 348 349 349 348 348 349 349 348 348 347 347 347
357 356 356 358 351 341 338 341 350 360 363 360 362 362 362 361 361 361 360 361 361 359 355 353 356 356 356 357 354 352 352 352 352 352 352 353 353 352 352 352 352 351 352 353 353 353 353 350 348 344 343 346 347 346 348 352 353 353 352 352 350 348 348 349 351 351 351 351 350 350 351 351 350 349 348 349 348 348 349 348 347 349 348 348 348 349 349 349 348 348 349 349 348 348 348 346 346
358 358 357 356 347 344 344 346 353 363 363 360 363 362 361 361 360 361 362 361 360 359 355 355 357 354 357 357 353 352 353 353 351 352 353 353 353 352 352 352 351 351 352 353 353 353 353 352 349 346 345 347 347 347 351 353 353 354 353 352 352 349 348 349 351 352 351 352 351 350 350 350 350 349 349 348 348 349 349 347 348 348 348 348 349 349 349 349 349 349 349 349 348 348 347 346 346
357 359 359 355 350 351 352 351 357 364 363 364 364 361 360 360 361 361 362 361 360 359 356 355 354 355 358 355 353 351 352 352 351 352 353 353 353 352 353 352 350 350 351 352 354 354 354 353 352 351 349 348 346 347 351 353 353 354 354 353 353 350 349 350 352 351 350 351 351 351 350 352 351 349 347 346 348 350 350 347 348 350 349 349 349 350 349 348 349 348 349 348 349 348 346 345 345
356 357 358 357 354 356 354 352 357 362 363 365 363 361 360 360 361 360 360 361 361 360 356 353 352 356 357 354 353 349 350 352 351 352 353 353 353 352 352 352 351 351 351 353 355 356 355 354 355 354 353 351 348 349 351 351 352 353 353 354 354 351 351 351 350 349 349 349 351 352 352 353 351 349 347 348 350 350 351 350 351 352 351 351 350 350 348 348 348 348 347 347 348 348 346 345 344
354 356 359 358 353 353 353 355 358 361 363 364 362 361 361 360 359 359 359 362 362 357 354 355 352 357 356 353 352 347 349 352 351 352 353 353 353 353 352 351 351 351 352 354 356 356 356 355 355 356 356 355 351 351 351 349 350 353 353 353 353 353 352 351 350 350 350 348 350 351 351 352 352 351 350 351 351 351 351 351 352 352 351 351 351 350 348 347 348 347 346 346 346 347 346 345 344
353 355 360 357 350 348 352 358 358 358 362 364 361 361 363 360 358 361 361 360 359 353 354 355 351 356 354 350 350 347 350 351 351 352 352 353 352 353 351 350 350 351 353 354 355 356 355 356 356 357 357 353 350 351 353 351 349 351 353 352 351 352 353 352 352 353 352 351 352 352 350 352 353 352 353 352 352 352 352 351 351 352 351 350 350 349 348 347 348 347 346 345 345 347 347 346 344
352 356 360 354 349 348 353 361 357 356 361 364 362 361 364 362 360 361 360 358 357 356 355 353 351 353 351 348 349 349 351 350 351 351 352 353 351 352 350 349 350 352 354 355 356 356 356 356 356 356 355 352 350 351 354 354 351 352 354 352 351 351 351 352 353 354 353 353 352 352 353 355 355 353 354 352 352 351 351 351 351 351 352 351 348 347 347 347 348 347 345 344 344 346 346 345 343
355 359 357 348 350 353 355 361 358 359 363 363 363 362 363 364 361 360 359 359 359 359 356 354 353 352 351 351 349 350 350 350 351 351 351 352 351 351 349 349 350 351 354 355 357 356 356 357 356 355 352 351 351 352 355 355 353 354 356 354 353 352 351 353 355 354 354 354 353 354 356 356 356 355 355 354 354 352 351 351 351 351 352 353 351 348 346 346 346 344 344 344 344 344 343 343 343
356 360 355 350 354 356 354 358 357 359 362 363 365 362 362 364 363 361 362 362 361 360 358 355 353 352 350 350 349 350 351 351 351 351 351 352 351 350 349 349 349 351 352 354 355 355 356 355 354 353 352 352 352 352 355 356 355 356 356 355 354 354 354 355 356 355 356 357 356 356 356 356 356 354 353 352 353 351 351 350 349 349 350 352 352 350 347 346 347 346 346 346 345 343 343 344 345
355 357 356 353 354 354 351 354 356 358 361 363 364 364 363 363 362 362 363 363 362 362 358 354 354 352 348 348 350 351 350 350 350 350 350 350 349 349 349 349 348 350 351 352 353 354 355 353 352 352 352 353 352 353 355 356 355 356 355 355 354 355 356 357 357 356 356 357 356 356 355 356 355 352 351 351 352 352 351 350 349 348 349 351 352 352 350 350 351 350 350 348 347 346 345 345 344
355 356 357 354 352 353 350 349 352 355 359 362 363 365 365 362 362 363 363 363 364 362 357 353 353 351 348 346 349 350 350 350 350 349 348 348 347 347 347 348 348 349 350 351 353 353 353 352 352 352 353 353 352 353 355 355 355 355 355 355 355 355 356 357 357 356 356 356 356 354 354 355 355 353 353 354 355 355 354 353 353 352 352 353 353 353 353 352 353 352 352 352 350 348 346 345 343
354 354 355 353 351 352 350 347 348 352 358 362 363 365 365 362 362 362 362 363 365 361 356 353 350 349 347 346 349 349 349 350 348 347 347 347 346 346 346 347 347 348 349 351 352 352 352 352 352 352 353 353 352 353 355 355 355 355 355 356 355 355 356 356 356 355 356 356 355 353 354 354 354 353 354 354 355 354 353 353 352 352 352 352 353 353 353 353 353 353 353 354 352 350 349 348 346
353 353 351 349 349 350 348 344 346 349 357 364 364 364 364 363 363 362 361 363 364 360 356 352 349 348 348 348 349 346 346 348 348 347 346 347 346 346 346 346 347 348 349 350 350 351 351 350 351 352 352 353 352 353 356 355 355 356 355 356 356 356 357 356 356 355 355 356 354 353 353 353 353 353 353 354 354 352 351 350 350 350 352 353 353 353 354 354 353 354 354 354 353 351 351 350 348
351 351 349 347 346 347 345 341 344 346 353 362 362 362 363 363 363 361 362 364 362 359 355 352 351 351 350 348 346 345 346 347 347 347 347 347 347 346 346 347 347 348 349 349 350 351 350 350 351 352 352 352 352 355 356 355 355 355 354 355 356 356 356 356 355 355 355 355 354 353 353 353 353 353 353 353 352 350 350 350 351 351 352 353 353 353 354 354 354 355 354 354 354 352 352 351 349
350 349 347 345 344 344 341 338 340 344 349 357 362 363 362 361 364 363 363 363 360 358 354 351 351 350 348 347 345 346 346 347 347 347 347 346 346 346 346 347 347 348 349 349 349 350 349 350 351 352 352 352 352 355 356 355 355 354 354 355 355 354 354 354 353 353 353 353 353 353 353 352 352 352 353 352 351 350 350 351 352 353 353 353 353 354 354 354 354 354 354 353 354 352 351 351 350
347 347 345 342 342 339 337 336 339 344 348 355 361 364 361 360 362 363 364 362 358 357 354 353 351 347 348 347 345 346 345 348 349 348 348 347 347 347 346 347 347 348 348 347 348 349 349 350 351 352 352 352 353 355 356 355 355 355 355 355 354 353 351 351 351 351 351 352 352 353 353 353 352 352 352 351 350 351 351 352 353 353 354 354 353 354 354 354 353 354 354 353 354 353 351 351 350
342 342 340 340 338 336 339 340 341 346 350 353 360 362 361 361 362 363 363 360 357 357 356 354 352 349 348 347 346 349 348 348 350 349 349 348 347 347 347 347 347 347 348 348 347 349 349 350 351 352 352 352 353 355 356 354 354 355 355 353 352 351 351 350 350 350 351 351 352 352 353 353 353 352 352 351 350 350 352 353 354 353 354 354 354 354 353 354 354 354 355 355 355 353 352 352 351
339 337 337 337 335 339 346 345 345 349 352 352 358 362 361 361 361 363 362 359 356 356 356 354 352 351 349 348 347 350 351 350 350 349 349 349 349 348 347 347 348 347 348 348 348 349 350 349 351 352 352 352 353 355 355 353 354 355 353 352 351 351 351 351 349 349 350 351 352 352 352 352 353 353 353 352 351 351 352 353 354 354 354 353 354 354 355 356 355 356 356 357 356 353 352 352 351
336 334 337 339 335 344 350 348 348 351 353 352 357 360 360 364 362 360 360 358 356 356 356 354 352 352 350 349 348 348 351 351 351 350 349 349 349 348 347 348 348 347 347 348 348 349 351 350 350 351 352 352 352 353 354 352 353 354 352 351 351 351 351 350 349 350 350 351 351 351 351 351 352 353 354 354 353 353 354 353 353 354 354 354 354 355 356 356 355 355 355 355 354 352 352 352 352
334 335 337 338 333 344 354 349 349 353 353 353 358 354 356 365 361 357 360 357 356 356 356 354 353 352 351 350 349 348 350 352 352 349 349 349 348 348 347 348 348 346 347 347 348 349 350 350 350 350 351 352 352 352 353 352 352 352 351 351 351 351 351 350 350 350 350 351 351 351 351 352 353 354 355 356 355 353 353 353 353 353 354 355 356 357 356 354 354 354 353 352 352 351 351 351 351
334 336 336 337 329 336 355 351 350 357 353 354 360 352 354 363 361 358 360 356 356 358 355 354 354 353 351 350 349 348 349 352 352 350 349 350 349 348 347 348 348 347 347 347 348 349 350 351 350 350 351 352 352 352 353 352 352 352 351 351 351 351 351 350 350 350 351 351 352 353 353 353 354 355 356 357 356 353 353 353 354 354 355 356 356 357 356 354 355 354 353 352 352 351 350 350 351
335 331 329 334 328 335 353 350 350 357 355 355 360 353 354 360 362 359 359 356 356 357 356 355 354 354 351 350 350 347 348 351 352 350 349 350 349 347 348 348 348 347 346 346 349 350 350 351 351 350 351 352 352 352 352 352 352 352 351 351 351 352 351 351 350 351 352 353 353 354 355 356 355 354 355 357 356 354 353 354 355 355 356 357 356 357 356 355 355 355 354 353 353 353 350 348 349
333 332 325 328 328 333 346 351 352 354 356 357 359 357 357 359 359 359 358 356 356 358 357 356 355 356 353 351 350 348 348 350 351 351 349 349 348 347 348 348 348 346 346 347 350 351 350 351 351 350 350 352 352 352 352 353 352 352 352 351 351 352 351 351 351 351 352 353 354 355 356 357 355 351 352 357 357 354 354 354 355 356 356 357 357 357 356 355 355 355 356 354 354 354 351 348 348
326 331 328 328 328 328 336 349 354 353 358 360 360 361 360 358 358 359 359 356 357 359 358 356 355 355 354 352 351 349 349 349 350 350 350 349 348 347 348 349 348 346 346 347 350 351 350 350 351 350 350 351 352 352 352 353 352 352 352 351 352 352 351 351 352 352 352 353 355 356 356 357 355 349 349 356 358 355 354 355 356 357 357 357 358 357 356 356 355 356 357 356 354 354 353 350 348
321 325 326 325 327 326 331 345 353 355 358 359 360 360 360 359 358 359 359 357 358 360 358 356 355 355 354 353 351 350 350 349 350 351 351 350 349 349 349 350 349 347 346 347 350 351 350 351 352 352 351 350 352 353 352 352 352 352 351 351 352 352 352 353 353 352 353 353 354 356 356 357 356 350 349 355 358 355 355 355 356 358 357 358 358 356 356 356 357 357 357 357 355 354 353 353 350
328 329 328 325 324 325 333 344 351 356 356 357 358 354 356 360 358 358 358 358 359 359 359 358 356 356 355 354 353 351 350 349 350 351 351 351 351 350 349 349 349 348 346 347 352 352 351 351 352 353 353 351 352 353 353 352 352 352 351 351 352 353 354 355 354 354 354 353 354 356 355 356 356 353 353 356 358 357 357 356 357 358 357 358 358 356 356 356 358 358 356 356 356 354 353 352 351
333 332 331 327 324 323 330 339 343 353 354 351 352 348 348 352 354 357 356 358 359 358 360 359 357 357 356 355 354 352 351 350 350 351 353 352 352 351 350 350 349 348 347 349 352 352 352 352 353 354 353 352 352 353 353 353 353 353 352 353 352 354 355 355 355 354 354 354 355 355 355 355 355 355 355 357 357 357 357 358 359 359 357 357 358 357 356 356 357 358 356 356 354 355 354 352 349
333 331 328 326 325 325 328 332 335 343 347 344 344 343 344 345 348 353 355 357 358 358 359 359 358 357 356 355 355 354 351 350 351 352 354 353 353 352 350 350 349 349 349 350 353 352 352 352 353 354 354 353 353 352 353 353 354 353 353 353 352 353 355 355 355 354 354 354 356 356 355 355 355 355 356 357 358 357 357 358 359 359 359 358 358 357 357 357 358 358 357 356 354 354 355 352 349
333 331 326 324 326 328 328 330 333 336 338 339 339 337 338 342 344 349 354 355 355 355 357 357 357 358 357 355 355 355 353 352 351 352 355 354 353 353 351 349 349 349 350 351 352 352 353 352 353 354 354 355 354 353 354 353 354 354 353 353 353 353 353 353 354 354 354 354 355 355 356 356 355 355 356 357 357 357 358 358 357 358 359 359 359 359 358 358 358 357 357 357 356 354 354 353 351
332 330 324 322 327 326 322 327 334 335 334 335 337 333 334 339 342 349 353 352 353 353 354 356 355 356 356 354 355 354 353 354 353 351 353 354 354 353 352 351 350 350 351 351 351 352 353 353 354 355 355 355 354 354 354 353 354 355 355 355 355 354 353 353 354 355 354 354 355 356 356 357 356 356 356 356 357 357 358 358 357 357 359 359 360 360 358 357 357 357 356 357 357 354 353 353 351
330 331 326 324 329 327 323 327 331 330 329 333 333 326 327 337 343 348 352 352 353 352 354 356 355 355 354 354 354 353 353 354 353 352 351 353 354 354 353 353 352 352 352 352 351 351 352 353 355 356 356 355 355 356 355 354 355 355 355 356 355 355 354 354 354 354 354 355 355 355 356 357 357 356 356 357 357 358 358 358 358 358 360 360 359 358 358 357 356 356 356 357 357 355 354 353 351
325 331 332 329 331 330 328 329 327 321 321 331 330 319 321 335 341 345 351 353 355 355 355 355 356 356 355 355 354 352 353 353 352 352 352 353 354 354 354 353 353 353 353 353 351 351 352 353 356 357 356 356 356 357 356 355 355 354 354 354 354 355 355 354 354 353 353 354 353 354 355 357 357 357 357 357 358 358 358 359 359 359 360 360 359 359 358 356 356 356 356 356 356 356 355 355 353
320 328 333 333 333 331 329 328 323 316 317 328 329 320 320 327 333 344 352 354 357 356 356 355 355 356 354 355 355 353 353 351 351 352 351 353 353 354 354 354 354 353 354 354 352 352 353 354 357 358 357 356 356 357 357 355 354 353 353 354 353 354 354 354 354 353 352 352 352 354 355 357 357 357 357 358 358 358 359 359 360 359 359 359 359 359 358 356 356 356 357 357 357 358 359 358 354
321 330 333 333 333 331 330 328 322 320 321 325 326 324 318 318 331 349 352 354 359 359 358 357 356 356 355 355 354 354 353 351 352 352 351 353 354 354 354 354 354 353 354 355 354 353 354 356 359 359 358 357 357 358 357 355 353 353 354 354 353 353 353 353 355 354 353 353 354 354 355 356 357 358 358 358 358 358 359 360 360 359 359 359 359 359 358 357 357 358 358 359 359 361 360 359 356
326 331 331 331 332 331 330 327 323 323 322 317 320 324 318 316 333 352 351 352 357 359 359 358 357 356 356 355 354 354 354 353 352 351 351 353 354 354 353 353 354 352 353 354 354 355 356 358 360 360 359 358 358 359 359 355 353 353 354 353 354 354 352 353 354 354 353 353 354 355 355 356 357 358 358 358 358 358 359 360 360 360 359 359 358 358 358 358 360 360 360 359 359 360 360 359 359
329 329 329 330 330 329 329 327 323 321 320 315 317 321 317 316 329 342 345 346 349 352 353 353 356 356 355 355 354 354 354 354 352 351 352 354 354 353 353 353 353 352 353 354 354 355 357 360 361 361 360 359 359 360 360 357 354 354 354 353 355 355 354 353 353 353 354 354 355 355 357 358 357 357 357 357 358 358 358 359 360 359 359 359 357 358 359 358 360 361 361 360 360 361 360 359 360
329 329 328 327 327 328 327 326 322 319 318 317 316 320 317 318 327 337 341 345 347 349 348 349 353 356 357 356 354 353 354 354 353 352 353 354 353 353 353 353 353 352 352 353 355 355 358 361 362 362 361 360 360 361 360 358 355 355 354 353 355 356 355 354 354 354 354 355 354 355 356 358 358 358 357 357 357 358 358 358 359 359 359 359 358 358 359 358 358 358 360 360 360 361 361 360 359
328 328 325 321 320 323 321 320 321 318 317 316 317 320 316 317 328 338 343 348 348 348 349 348 348 351 355 356 355 354 353 354 353 352 352 352 353 354 354 353 353 353 352 353 355 356 358 360 362 362 362 361 361 361 360 359 357 355 354 354 354 356 356 355 355 354 354 355 355 354 355 357 358 358 358 358 357 357 358 358 358 359 360 360 359 359 359 359 357 357 359 360 361 362 362 361 360
328 325 321 316 316 318 317 317 318 316 315 316 318 320 316 319 332 340 345 348 347 347 348 348 348 348 350 352 354 356 354 353 353 353 353 352 352 354 353 353 354 353 353 354 354 355 357 360 362 363 363 362 361 361 360 359 357 356 355 355 355 356 357 356 355 354 354 355 354 354 356 357 358 358 358 358 358 357 358 358 358 360 361 360 360 361 361 361 360 359 360 360 360 361 361 361 360
325 322 317 315 316 317 317 317 317 315 314 315 319 319 316 323 336 343 345 346 345 346 346 346 348 348 348 349 350 353 355 354 353 353 353 351 353 354 353 353 354 354 354 354 354 355 356 359 362 363 363 362 361 360 360 360 358 357 356 356 356 356 357 356 355 353 353 353 353 354 355 355 356 357 357 357 358 357 357 358 358 359 361 361 360 362 363 363 363 361 361 361 359 360 362 362 360
324 325 322 317 315 316 316 315 315 314 313 314 319 318 316 323 337 345 345 343 343 344 344 346 347 347 349 349 348 351 354 354 354 354 353 353 355 355 354 353 354 354 354 354 354 355 356 359 361 363 363 363 362 361 360 360 359 358 357 356 356 356 356 356 355 353 353 353 353 353 354 354 354 355 356 357 358 358 358 358 358 358 360 361 361 361 362 363 363 362 362 362 360 360 362 362 360
324 326 322 317 318 318 314 313 313 313 312 314 315 317 322 331 341 344 342 342 343 342 343 345 346 346 347 349 349 350 352 353 353 354 354 355 356 355 354 354 353 354 354 355 355 355 357 359 361 362 363 363 363 361 361 360 359 359 358 357 356 356 356 356 355 355 354 354 353 353 353 354 353 353 356 358 358 358 357 358 358 357 358 360 360 360 360 361 362 361 362 363 360 359 361 362 360
322 321 318 320 324 322 315 313 314 312 313 315 313 317 327 333 337 342 342 342 343 342 342 342 344 346 346 347 348 348 349 351 352 354 354 355 357 356 355 354 354 354 355 355 355 355 357 359 361 362 363 363 362 361 361 360 360 359 358 358 356 356 356 355 354 354 354 353 354 354 353 353 353 353 355 356 357 357 357 356 356 356 357 358 358 358 359 360 361 361 361 361 359 358 361 362 360
319 317 318 322 323 322 318 315 315 313 313 315 312 316 322 321 328 341 344 343 344 343 342 342 342 344 345 346 347 347 348 348 349 352 353 355 357 357 356 355 354 355 355 355 355 355 357 358 360 361 362 362 362 361 361 360 360 360 359 358 357 355 355 354 353 354 354 353 353 354 352 351 352 352 352 353 354 356 357 357 356 355 356 357 357 357 358 359 360 359 359 360 359 359 361 362 361
319 318 321 321 317 316 317 315 315 313 313 314 313 316 322 323 329 340 343 343 344 343 342 342 341 342 343 344 345 346 347 347 348 350 352 354 357 357 357 355 354 354 355 355 355 355 357 358 358 359 360 361 361 360 360 360 360 359 358 358 357 356 355 354 353 353 354 353 353 353 352 350 352 352 353 355 355 354 355 356 357 356 355 356 357 356 356 358 359 358 358 358 358 359 360 361 361
319 319 321 322 317 315 316 315 315 313 311 314 316 317 324 332 337 341 342 343 343 342 342 341 340 341 341 342 344 345 346 347 349 349 350 352 355 356 356 356 355 354 354 355 355 355 356 357 357 357 358 359 359 359 359 360 359 358 358 358 358 357 355 354 355 353 354 354 353 353 351 350 351 351 353 356 355 353 353 355 354 353 353 354 355 355 355 357 358 358 358 356 356 359 359 359 359
317 317 316 318 318 318 318 316 315 313 311 314 316 318 327 337 341 340 342 342 340 340 341 340 339 339 340 340 342 344 345 346 348 350 349 351 354 356 355 356 355 354 353 354 354 354 355 355 356 356 356 358 358 358 359 359 359 358 358 359 358 358 356 355 355 354 354 354 353 353 351 350 350 351 351 354 354 353 353 354 353 351 352 352 354 355 354 356 358 358 359 358 357 359 359 358 357
316 316 315 316 317 316 316 315 315 314 313 314 314 320 331 338 339 339 340 339 338 339 339 338 337 338 338 338 339 341 343 344 346 347 347 350 354 355 355 355 355 354 354 354 354 354 354 354 355 355 355 356 356 357 357 359 359 359 359 359 358 358 358 356 355 354 354 354 353 353 353 351 351 351 352 352 352 352 353 353 352 352 353 353 355 356 354 354 356 357 358 358 357 359 360 358 357
Wind_Speed
9 8 7 7 6 5 5 4 3 4 3 4 2 4 3 3 3 2 4 4 4 5 4 8 11 7 3 3 7 9 10 9 5 2 5 8 16 19 18 21 21 19 20 18 19 19 18 18 17 17 18 19 19 18 17 17 17 16 15 14 13 12 11 11 11 11 11 11 11 10 10 10 10 10 9 9 9 9 9 10 11 10 11 12 12 11 11 11 13 13 12 11 10 10 12 13 13
8 8 8 6 6 5 2 2 4 3 3 4 0 5 4 4 1 3 6 5 5 7 8 10 11 7 4 5 6 7 11 11 9 8 9 16 19 18 20 21 19 19 19 18 19 19 18 19 18 18 19 19 20 18 17 17 17 16 15 14 13 12 12 12 12 12 11 11 10 10 10 10 12 11 10 10 10 10 11 11 11 10 12 14 13 11 10 10 12 13 13 12 10 10 11 12 12
9 9 8 6 5 5 2 2 4 2 2 3 2 6 5 3 1 3 6 6 9 11 11 11 10 7 4 6 5 5 7 8 12 12 11 18 17 16 21 20 19 18 18 18 17 18 18 19 19 18 18 18 17 17 17 16 16 15 14 13 12 12 12 12 12 12 11 10 10 10 10 11 12 13 12 11 11 11 12 11 11 11 12 14 13 11 11 10 11 13 14 13 10 11 10 11 12
9 8 7 6 5 4 3 4 4 3 2 2 2 6 6 3 4 5 6 9 11 12 12 11 9 3 2 8 6 6 9 9 14 13 11 15 16 19 22 19 19 17 17 17 16 18 18 19 18 17 17 16 16 16 16 15 15 14 14 13 12 13 13 13 12 12 11 10 10 11 11 11 12 13 13 12 12 12 13 12 12 12 13 14 13 11 10 11 11 12 14 13 11 11 10 11 12
8 7 5 5 3 2 3 3 3 3 3 3 1 5 5 4 7 6 6 11 11 12 11 9 8 4 5 8 4 5 9 9 13 14 13 16 20 21 21 19 19 17 17 16 16 19 19 18 17 16 16 16 16 15 15 14 14 14 13 12 12 13 13 12 13 13 12 10 10 11 12 13 13 13 13 13 13 14 14 14 14 13 14 14 13 11 10 11 11 12 13 13 11 11 11 11 12
8 6 5 6 3 2 3 4 4 3 2 4 2 5 4 4 8 8 8 10 9 10 10 8 8 8 7 7 6 7 6 9 13 14 16 20 23 22 20 19 18 17 17 15 15 17 19 18 16 16 15 16 15 14 14 14 14 13 13 12 12 13 12 12 13 14 13 11 12 13 13 14 14 14 14 14 14 14 15 15 15 15 15 13 13 13 11 12 11 11 12 12 12 12 12 12 12
7 5 5 5 3 2 5 4 4 3 3 4 3 5 4 5 9 10 11 10 9 9 7 7 10 9 7 5 7 8 6 11 13 14 19 23 24 22 20 18 17 17 16 15 15 16 18 17 16 15 15 16 15 14 14 13 14 13 12 12 12 12 12 12 13 15 14 12 13 14 14 15 15 14 14 15 14 15 15 16 16 15 16 15 14 13 11 12 11 12 12 12 12 12 12 12 12
6 4 3 3 3 3 5 4 3 3 3 4 4 5 3 6 10 10 12 9 9 10 8 9 10 8 7 5 6 6 8 12 13 17 22 24 24 23 20 19 18 17 16 15 15 16 17 16 15 14 15 15 14 14 14 13 13 13 12 11 11 12 11 12 13 15 14 12 13 14 15 15 15 14 14 15 14 15 16 16 15 15 16 15 14 13 12 12 12 12 13 12 12 12 13 13 13
6 4 3 2 3 3 5 4 2 2 2 3 5 5 4 7 10 10 11 9 9 10 11 11 8 8 8 7 8 8 9 13 17 21 23 23 24 22 20 19 19 18 16 15 16 16 16 15 14 14 14 14 13 13 13 12 12 12 12 10 10 11 11 11 13 14 14 12 13 14 14 15 14 14 15 15 14 16 17 16 15 16 17 15 14 14 13 13 12 12 13 13 13 13 13 14 14
5 3 3 3 3 3 3 2 1 2 3 4 4 4 6 8 9 9 10 10 11 11 12 9 6 9 9 10 9 7 10 16 20 22 22 23 22 20 19 19 18 18 17 16 16 16 16 15 14 14 14 13 12 12 12 12 12 12 12 11 8 9 11 11 12 13 14 13 13 14 14 15 14 13 14 15 15 17 18 17 15 17 18 15 15 16 15 14 12 11 12 13 14 14 14 14 14
3 3 3 4 3 2 3 2 3 3 4 3 4 4 5 8 9 9 9 10 11 11 12 8 8 11 10 9 6 7 14 19 21 22 22 21 20 20 19 18 18 17 17 17 16 16 16 15 14 14 13 12 12 12 11 11 11 12 13 12 9 8 10 11 12 13 15 15 14 14 14 14 14 14 14 15 16 18 19 17 15 17 18 16 15 16 15 14 12 12 12 13 14 14 14 14 14
2 3 3 3 2 2 4 4 5 4 4 3 5 6 5 8 8 10 10 11 11 12 12 8 9 11 9 8 5 11 18 20 21 22 21 20 20 19 18 17 17 17 16 16 16 16 16 15 15 14 12 11 11 11 11 11 11 12 12 13 11 8 8 11 12 13 15 16 15 14 14 14 14 14 15 15 16 18 18 17 16 17 18 16 15 15 15 14 14 13 13 14 14 14 14 14 14
3 3 3 3 3 3 4 4 5 5 4 3 5 6 6 7 9 11 11 12 11 11 11 8 9 9 8 8 7 12 17 20 21 21 21 20 19 18 17 17 17 16 16 16 16 16 15 15 14 14 13 12 11 11 11 11 10 11 11 12 13 10 8 10 11 12 15 17 17 15 15 14 13 14 16 16 16 16 16 16 17 16 17 17 16 15 15 15 15 15 14 14 15 15 16 15 14
3 3 4 3 2 2 3 3 4 4 2 3 5 7 6 5 8 11 10 13 10 7 10 9 10 9 9 9 8 10 15 21 22 22 21 19 18 17 17 17 16 16 16 15 15 14 14 13 13 13 12 12 12 11 10 10 9 10 10 11 13 12 11 10 10 12 12 14 16 15 15 15 14 15 16 16 14 15 15 16 17 16 17 19 17 17 16 16 16 16 15 15 15 16 17 17 16
2 3 4 3 2 1 3 3 4 4 2 5 6 6 6 4 7 10 9 10 9 8 9 9 8 6 9 12 10 12 18 23 23 22 21 19 18 17 17 16 16 16 15 14 14 13 12 12 12 12 11 11 11 10 10 9 9 9 9 10 11 13 14 12 12 13 12 12 14 14 15 16 15 16 16 15 14 14 15 16 17 16 17 19 19 18 18 18 17 17 16 15 16 17 18 18 17
2 2 3 2 2 2 4 4 4 4 4 8 8 7 8 8 7 7 6 6 8 9 7 8 6 2 8 13 14 20 24 24 22 22 21 19 18 17 16 16 15 15 14 13 13 12 12 11 11 11 10 9 9 9 10 9 9 9 8 10 9 11 12 13 14 14 14 13 13 13 15 15 14 15 15 14 14 14 15 15 16 16 17 18 18 19 19 19 18 16 14 15 16 17 19 18 17
2 3 3 1 2 4 6 6 5 3 5 8 9 8 8 9 7 5 5 6 10 9 5 6 5 3 8 14 21 26 26 24 23 22 21 19 18 17 16 15 15 14 13 13 12 11 11 11 11 10 9 8 8 9 10 9 9 9 8 9 9 9 10 11 13 13 14 14 14 14 13 13 12 13 13 14 14 14 14 14 15 17 18 18 18 19 19 19 18 16 14 15 16 18 20 19 17
3 3 3 1 3 5 7 7 6 2 6 8 8 8 8 9 8 6 7 9 10 8 6 6 5 6 12 19 26 27 25 25 23 22 21 19 17 17 16 15 15 14 14 13 12 11 11 11 11 10 9 8 8 9 9 9 9 9 8 8 8 9 9 10 10 11 12 12 12 12 11 11 11 11 11 12 13 13 14 13 14 16 18 20 19 19 19 19 18 16 15 16 16 17 18 18 16
4 3 2 2 5 5 6 7 7 5 4 8 8 8 8 9 9 7 8 11 10 9 8 8 9 12 16 23 27 26 25 24 23 22 21 19 17 17 16 15 15 15 14 13 12 12 11 11 10 9 9 8 8 8 9 9 9 9 8 8 8 8 8 9 9 9 9 9 10 10 10 10 11 11 12 13 13 13 13 13 14 15 16 19 20 19 19 19 17 15 15 16 16 15 16 15 13
4 4 1 4 5 5 6 8 7 6 3 7 8 6 7 8 8 7 8 11 11 10 9 10 13 15 18 23 25 26 24 23 22 21 20 19 18 18 17 16 15 14 14 13 13 12 11 11 10 9 8 8 8 8 8 8 8 8 8 8 7 7 7 7 8 8 8 8 8 9 10 11 11 12 13 13 12 12 12 12 13 13 14 15 16 17 17 16 16 15 15 14 13 13 12 11 10
2 4 1 5 3 4 7 8 8 6 3 5 8 7 7 8 6 6 8 10 8 9 10 11 15 18 20 22 24 25 24 22 22 21 21 19 18 17 16 16 15 14 13 13 13 12 11 10 9 9 9 8 8 8 8 8 8 8 8 8 7 7 7 7 7 7 7 7 7 8 10 10 10 11 10 10 10 9 10 10 10 11 11 11 11 11 12 11 13 14 14 13 12 11 11 10 10
3 5 3 2 1 4 6 6 6 6 3 4 7 7 6 7 6 6 9 7 3 6 8 12 17 19 21 22 23 24 23 22 22 21 21 19 18 17 16 16 15 13 12 12 13 12 11 10 9 9 9 9 8 8 7 7 8 8 8 8 8 7 7 7 7 7 7 6 6 7 8 9 9 9 9 9 8 8 9 9 9 9 9 9 9 9 10 10 10 11 12 12 11 11 11 11 10
5 5 3 2 2 4 5 4 4 3 2 4 5 6 7 7 6 6 8 3 2 6 9 12 17 20 23 24 22 22 21 21 22 22 21 20 19 17 17 16 15 14 12 11 11 11 10 10 9 10 10 9 8 8 7 7 8 7 8 8 7 7 7 7 7 7 7 6 6 6 7 7 8 8 8 8 8 8 8 9 9 9 9 8 8 9 9 9 10 10 10 10 10 11 11 10 10
6 4 2 2 2 3 5 3 2 1 1 3 4 6 8 8 6 7 7 4 5 7 10 13 17 22 23 22 21 20 20 21 22 21 20 20 18 17 16 15 15 14 12 11 10 10 11 10 10 10 10 10 9 8 7 7 7 7 8 8 8 8 7 7 7 7 7 7 6 6 6 6 7 7 8 8 8 8 8 9 9 8 9 8 8 9 9 9 9 9 9 9 9 9 10 10 10
9 7 3 3 3 4 5 4 2 2 1 4 5 6 9 8 4 7 7 5 7 8 11 14 17 20 20 19 20 19 19 20 21 21 19 18 17 17 16 15 15 14 13 12 10 10 11 11 11 11 10 10 9 8 7 7 7 7 7 8 8 8 7 7 8 8 7 7 7 6 5 5 6 7 7 7 8 8 8 8 8 8 8 8 8 8 9 9 9 9 9 9 9 8 9 9 9
7 7 5 5 6 5 5 5 3 3 3 5 7 5 8 7 3 6 8 6 8 10 12 14 16 18 18 17 18 18 18 19 20 20 19 17 17 17 16 15 15 14 14 12 11 10 11 12 12 11 11 10 9 8 7 7 7 7 7 7 8 8 8 8 8 8 7 7 7 6 5 5 6 7 7 8 8 8 8 7 7 7 7 7 8 8 8 9 9 9 9 9 9 8 9 8 8
2 5 6 7 8 5 5 5 2 4 5 7 7 5 6 6 6 5 8 8 9 12 13 14 15 17 17 16 16 17 18 19 20 19 18 17 17 17 16 15 15 14 14 13 12 11 12 13 12 11 10 10 10 8 8 8 8 7 7 7 8 8 8 8 7 7 7 7 7 6 6 6 6 7 7 8 8 7 7 7 6 7 7 7 7 7 8 8 9 9 8 8 8 8 8 8 7
2 5 6 8 7 2 2 2 2 4 6 7 7 9 6 6 7 6 9 11 11 13 14 15 15 14 15 16 16 15 16 18 19 18 18 18 17 17 16 15 15 15 14 14 12 11 12 13 12 12 11 10 10 9 9 9 8 7 7 8 8 8 8 7 7 7 7 7 7 7 6 6 7 8 8 7 7 7 6 6 6 6 7 7 7 7 7 7 8 7 7 7 7 7 7 7 6
4 7 7 7 6 3 2 3 4 4 5 7 8 8 8 9 8 7 12 12 12 14 14 15 14 14 14 15 14 13 15 17 18 17 18 17 17 17 17 15 15 15 14 14 13 12 13 12 12 12 11 11 10 10 9 9 9 8 8 8 8 8 8 7 7 7 7 7 7 7 6 7 7 7 7 7 7 7 6 6 6 6 6 6 6 6 6 6 6 6 6 6 7 7 7 6 6
6 7 7 6 6 5 5 4 5 4 5 7 7 3 5 9 9 9 13 12 14 14 14 14 12 12 13 14 13 13 15 17 17 17 17 16 16 17 17 16 16 14 13 14 14 13 13 12 12 12 12 12 11 10 9 9 9 9 8 8 8 8 7 7 8 8 8 8 7 7 7 7 7 7 7 6 5 6 6 6 6 6 5 5 5 5 5 5 5 5 6 6 6 6 7 6 6
6 6 6 6 6 5 6 4 6 5 5 7 6 1 2 8 10 11 12 12 14 13 13 14 12 12 12 13 13 13 14 16 17 17 18 17 16 16 17 17 16 15 13 14 14 14 13 12 12 12 12 12 11 11 10 9 9 9 8 8 8 7 7 7 8 8 8 8 8 8 7 6 6 6 6 5 4 5 6 6 6 5 5 4 4 4 4 4 4 5 5 5 6 6 7 6 6
7 6 7 7 4 4 6 5 5 3 4 7 6 1 2 8 10 10 11 12 13 12 13 13 12 12 12 12 13 12 13 16 17 18 18 18 16 16 17 17 17 15 14 14 14 15 14 13 12 12 13 13 12 11 10 10 9 9 8 8 8 7 7 7 7 8 8 8 8 8 7 6 6 6 6 5 4 4 5 6 5 5 4 4 4 3 3 3 4 4 5 5 6 6 6 7 7
8 7 8 8 6 6 6 7 4 2 3 7 6 2 2 7 10 10 10 13 13 12 12 13 12 11 11 11 12 12 12 14 16 18 19 18 17 17 17 17 17 16 15 15 15 15 15 14 13 12 14 14 13 12 11 10 10 9 9 8 8 8 7 7 7 7 8 8 8 7 7 6 6 7 6 5 4 4 5 5 5 4 3 3 3 3 3 3 3 3 4 4 5 5 6 7 6
7 8 8 7 6 5 5 6 6 4 4 7 8 5 3 6 9 10 11 12 13 11 12 13 12 11 11 11 11 12 12 13 14 17 19 19 18 17 17 17 17 16 15 15 16 16 15 14 13 12 13 14 13 13 12 11 10 10 9 9 8 8 7 7 7 7 7 7 7 7 7 6 6 7 7 5 4 5 5 5 4 4 3 2 2 2 2 3 3 3 3 4 4 4 5 5 6
10 10 9 7 5 4 4 5 7 7 7 6 7 6 5 7 8 10 11 11 12 11 11 12 12 12 12 11 12 12 13 13 14 17 20 19 18 18 17 17 18 17 16 16 16 16 15 14 14 13 13 14 13 13 12 11 11 10 9 9 9 8 7 6 7 7 7 7 7 8 7 6 6 7 7 6 5 5 5 4 4 3 3 2 2 2 3 3 3 3 3 3 3 3 3 4 4
8 9 10 9 7 4 4 6 7 9 7 6 7 6 5 9 9 10 12 11 11 11 11 11 12 12 11 11 11 12 13 13 15 18 19 19 18 18 17 17 18 17 16 17 17 17 16 15 15 14 14 14 14 13 13 12 12 11 10 10 10 9 8 7 7 7 7 7 7 8 7 6 6 6 7 6 5 5 5 4 4 3 3 2 2 2 3 3 3 3 3 3 2 2 2 3 3
3 6 8 8 6 5 7 7 7 8 6 5 7 5 3 6 9 11 12 13 12 12 12 11 12 12 11 12 12 13 13 13 16 18 19 19 18 17 17 17 18 18 17 17 18 18 17 16 16 16 15 15 15 14 14 13 13 12 12 11 10 10 8 8 7 7 7 7 7 7 7 6 6 6 6 6 5 5 5 4 4 3 3 2 2 3 3 3 3 3 2 2 1 1 1 1 2
3 5 7 7 6 5 7 6 6 6 6 5 5 5 4 4 7 10 12 14 14 14 14 13 14 13 11 12 13 13 12 12 15 17 18 20 19 18 17 17 18 19 18 19 19 18 18 17 17 16 16 16 15 15 14 14 13 12 12 11 10 10 9 9 8 7 7 7 7 6 6 6 6 6 6 6 5 5 5 4 4 3 3 2 2 3 4 3 3 2 2 1 0 1 1 1 2
5 5 6 6 7 6 6 6 6 5 5 3 3 4 4 5 6 10 13 13 12 14 15 14 14 14 12 13 13 13 13 13 15 16 19 20 19 19 18 17 18 19 19 19 19 19 18 17 17 17 17 17 16 15 15 14 13 12 11 10 10 9 10 9 7 7 6 6 7 6 6 6 7 6 6 6 5 5 5 4 4 3 3 2 2 3 4 3 3 2 1 1 1 1 1 1 2
7 6 6 6 7 6 4 7 7 4 4 1 0 4 4 5 6 9 12 12 11 13 15 14 14 14 13 14 13 13 14 14 15 16 18 20 21 20 19 18 18 19 19 19 20 19 19 18 18 17 17 17 16 16 15 14 13 12 10 9 9 8 8 9 7 6 6 6 7 7 6 7 7 6 6 6 5 5 5 4 4 3 3 2 2 3 3 3 3 2 1 1 1 2 2 2 2
8 7 8 5 7 6 2 5 5 5 5 4 3 6 5 5 6 8 10 11 11 12 14 14 14 14 14 14 14 15 14 14 15 16 17 19 21 21 20 19 19 19 19 20 20 20 19 19 19 18 17 17 17 17 16 15 14 13 11 9 9 8 8 8 8 8 8 7 7 7 7 7 7 6 6 6 5 5 5 4 4 4 3 2 2 2 2 2 3 2 2 2 1 1 2 3 2
8 10 9 3 3 5 2 2 4 5 7 6 4 7 5 5 5 6 8 10 10 10 12 13 13 13 13 13 14 15 14 14 14 16 17 19 21 21 21 20 20 20 19 19 20 20 19 19 19 19 17 17 17 17 18 16 15 15 14 12 11 10 9 10 10 9 9 8 8 8 8 8 8 7 7 7 6 6 5 5 4 4 3 3 3 2 2 2 3 3 3 3 2 1 1 2 2
6 8 10 6 3 5 5 4 5 5 3 4 3 7 4 7 6 5 8 9 9 9 9 11 11 11 12 12 13 13 14 15 15 16 17 19 21 22 22 22 21 20 20 19 19 20 20 19 20 20 18 17 17 18 19 18 16 16 16 14 13 12 11 10 10 9 9 8 8 8 8 8 8 7 7 7 7 6 5 5 4 4 4 4 3 3 2 2 3 3 3 3 3 3 2 2 2
4 6 7 9 6 7 7 6 6 5 2 2 5 5 4 5 5 5 5 6 7 7 7 9 10 11 12 12 12 13 15 16 15 16 17 19 22 23 23 23 22 21 20 20 20 20 20 20 21 21 19 18 17 18 20 20 18 17 17 15 13 12 11 10 10 9 8 8 7 8 8 8 8 8 7 7 7 7 6 5 5 5 4 4 4 3 3 2 2 3 3 3 3 3 3 2 2
4 6 4 7 6 7 7 7 7 3 2 5 7 5 5 5 6 5 4 6 5 6 6 7 10 11 12 13 14 14 15 15 15 16 17 19 22 24 24 24 23 22 21 21 20 20 21 21 21 21 19 18 18 18 20 21 19 18 17 16 14 13 12 10 10 10 9 8 8 8 8 8 8 8 7 7 7 7 7 6 5 5 5 5 4 3 3 3 3 3 3 4 4 4 3 3 2
4 4 5 5 5 6 6 7 7 4 4 8 7 7 7 5 6 4 4 6 4 3 2 3 7 11 12 13 14 15 14 14 15 15 16 20 23 24 24 24 24 24 22 21 21 20 20 21 21 21 20 19 19 19 20 20 20 18 17 17 15 14 12 11 10 10 10 9 9 9 8 8 7 8 8 7 7 7 7 7 6 6 5 5 5 4 4 4 4 4 4 4 4 4 3 3 3
4 4 6 6 6 5 5 6 5 5 6 9 9 9 9 5 4 3 4 5 5 4 3 3 1 6 10 12 13 14 14 14 15 15 15 19 23 23 24 24 25 25 23 22 22 21 21 21 21 22 22 20 19 20 20 20 20 19 18 18 17 16 14 13 11 11 11 10 10 10 9 8 8 7 8 8 8 8 8 8 7 6 6 6 6 5 5 5 4 4 4 4 4 4 4 3 3
7 6 7 7 6 5 5 5 5 6 7 10 10 8 10 8 3 5 5 6 7 6 5 6 6 3 4 9 11 12 13 14 15 15 15 17 20 22 24 24 24 25 24 23 23 22 22 22 22 23 22 21 20 21 21 20 20 20 19 19 19 17 16 15 14 13 12 12 11 11 10 9 8 8 8 8 8 9 8 8 7 7 7 7 7 6 5 5 4 4 5 5 5 4 4 3 3
9 8 8 8 7 6 7 8 7 8 6 7 10 9 7 3 5 6 7 8 8 7 7 7 7 7 5 6 9 11 12 13 14 14 14 16 16 20 23 23 24 24 24 24 24 23 22 22 23 23 23 23 22 21 22 21 21 21 20 19 19 18 17 16 15 14 13 13 12 12 11 10 10 9 9 9 9 9 9 9 9 8 7 8 7 6 6 5 5 5 5 5 5 5 4 4 4
10 9 9 8 7 8 9 9 8 9 7 5 7 9 7 5 6 6 8 9 9 8 8 8 8 7 6 6 7 10 12 13 13 14 15 15 16 20 23 23 24 24 25 25 24 23 22 22 23 23 24 24 23 22 22 22 22 21 20 20 19 18 18 17 16 15 14 14 13 13 12 11 11 11 10 10 9 9 9 9 10 9 8 8 8 7 6 6 6 5 5 5 5 4 4 4 4
11 9 9 8 7 7 8 9 9 9 9 8 8 7 6 6 6 6 8 9 9 9 9 9 9 8 6 5 4 7 11 12 12 12 14 15 18 22 23 24 24 24 25 26 25 24 23 22 23 24 24 24 24 23 23 23 23 22 21 20 20 19 18 17 16 16 15 15 14 14 13 12 11 10 10 10 9 10 10 10 10 10 9 9 8 8 7 7 8 7 6 6 5 5 5 5 5
10 9 9 8 6 5 5 5 8 10 9 8 8 4 2 6 9 8 7 8 10 10 11 11 11 11 9 7 7 3 5 10 11 12 13 16 20 22 22 24 25 25 26 26 25 25 24 22 23 24 24 24 24 24 24 23 23 22 22 22 21 20 18 17 17 16 16 15 14 14 14 13 12 10 10 10 10 10 10 10 10 11 10 10 9 9 8 7 8 8 7 7 6 6 5 5 5
6 8 9 4 1 4 3 2 6 9 8 8 8 6 7 8 8 7 6 8 11 12 12 12 13 13 11 10 9 9 7 4 6 10 14 15 18 21 23 24 25 25 26 26 25 25 25 24 23 24 24 24 24 24 24 24 23 22 22 23 22 21 20 19 18 17 17 16 15 14 14 14 13 12 11 11 11 11 10 10 10 11 11 11 10 10 9 8 8 8 8 8 8 6 5 5 5
3 7 7 4 1 4 4 3 6 9 7 7 11 11 9 7 5 5 8 10 13 13 13 13 14 14 13 12 11 11 11 11 9 7 11 14 16 20 21 22 24 25 25 26 26 26 25 24 24 25 25 24 24 24 23 23 23 23 23 23 24 23 22 21 20 18 17 16 15 15 15 14 14 14 13 12 11 11 11 11 10 10 11 11 11 10 10 10 9 9 8 9 9 7 6 6 6
3 1 4 4 4 7 6 5 6 9 9 7 12 12 6 2 1 6 9 11 13 12 13 13 15 15 13 13 13 12 12 10 10 9 8 11 15 19 20 21 22 23 24 25 26 26 25 25 25 25 26 25 25 24 23 23 23 22 22 23 25 24 23 21 20 18 17 16 17 16 16 15 14 14 13 13 12 12 12 12 11 11 11 11 11 11 11 11 10 10 9 9 9 9 8 7 7
3 3 4 4 4 5 6 7 6 7 9 8 9 10 5 4 3 6 8 10 11 11 12 12 14 14 13 13 13 12 11 10 9 7 8 9 12 17 19 21 21 22 23 24 25 26 25 25 25 24 24 25 25 25 24 24 23 23 22 22 23 24 23 22 20 19 18 17 17 17 16 16 15 15 14 14 14 13 13 13 12 12 11 11 11 11 11 11 11 11 10 10 9 8 9 9 8
4 6 6 5 4 3 3 7 5 5 7 8 9 9 5 5 3 5 7 8 8 9 10 10 11 12 12 13 13 12 11 10 11 7 4 7 10 15 17 17 17 20 22 23 24 25 25 24 23 24 24 24 25 24 23 23 23 23 22 22 23 23 23 22 21 20 20 19 18 17 17 16 16 16 15 15 15 14 14 13 13 12 12 12 12 12 12 12 12 12 11 11 9 9 9 9 9
3 1 1 2 4 4 5 8 7 5 5 4 7 7 6 5 2 4 6 7 7 9 9 9 10 12 12 13 13 13 13 11 13 13 9 6 3 8 12 16 18 19 20 22 23 23 24 24 24 23 24 24 24 24 23 22 22 22 23 22 22 22 22 22 22 21 20 20 19 18 18 17 16 16 16 16 15 15 15 14 14 13 13 13 12 12 13 12 13 13 12 12 11 10 10 10 10
Wind_Direction
127 140 150 156 169 180 201 221 248 205 227 267 232 100 101 68 90 140 126 162 129 125 136 133 143 132 93 79 100 86 51 43 44 65 101 119 129 128 132 136 135 134 134 135 137 136 135 133 133 133 128 126 128 135 136 131 125 122 120 119 118 116 116 114 114 115 115 115 116 115 115 110 104 105 108 105 102 99 92 87 83 86 92 94 91 88 89 93 96 96 97 97 101 103 101 100 100
147 151 155 160 179 209 209 206 262 217 215 259 162 84 102 88 104 148 149 174 112 132 142 136 143 112 68 74 98 96 64 47 68 88 100 126 129 128 134 138 137 135 135 137 139 138 138 136 134 133 132 133 135 134 131 126 122 120 118 117 117 118 118 117 115 112 109 108 108 107 105 98 95 99 102 99 97 94 89 87 87 95 99 95 93 91 93 95 97 99 99 97 97 98 100 100 101
156 152 156 171 200 227 259 217 255 270 251 272 66 85 102 94 109 114 130 135 110 131 135 137 133 98 122 124 89 75 79 73 99 107 116 133 132 133 138 139 137 135 135 137 139 138 137 135 134 135 134 133 130 127 124 121 119 118 117 115 117 117 115 113 108 103 100 100 100 98 96 94 96 96 96 96 96 94 90 91 93 94 93 94 95 95 96 96 97 99 100 100 100 100 102 104 104
155 157 171 197 216 222 251 233 258 292 286 299 51 83 103 111 85 82 107 120 124 137 135 138 122 63 121 112 84 77 91 94 112 121 130 139 137 138 139 139 138 135 136 138 141 138 136 135 135 137 133 130 126 123 119 116 116 116 116 117 116 113 109 106 101 98 95 96 96 94 96 98 98 97 99 99 97 96 93 93 93 90 88 90 95 98 99 101 100 100 102 102 102 103 103 102 100
155 167 199 235 248 237 261 254 264 271 298 335 52 87 101 105 94 108 124 122 135 142 138 138 119 101 79 66 50 96 101 106 125 131 129 134 135 138 139 139 140 136 136 138 140 136 135 134 135 137 134 130 126 121 118 115 115 117 118 117 114 110 106 103 101 97 94 96 97 97 99 99 96 95 99 101 99 95 91 91 91 89 86 86 94 97 98 102 100 100 103 104 105 105 101 99 97
161 178 215 244 274 302 266 253 263 259 337 357 43 99 105 110 118 139 127 119 140 142 140 139 128 129 98 58 55 72 95 125 138 134 128 133 137 139 139 140 141 137 135 134 133 132 134 134 133 135 135 131 126 122 118 114 116 118 117 116 113 110 108 107 103 97 96 98 100 98 97 97 94 92 93 97 97 93 91 92 92 89 85 86 91 91 92 98 101 102 104 108 108 106 102 100 100
175 193 206 229 244 249 262 262 279 292 49 22 45 107 125 121 125 142 132 130 148 148 149 139 132 125 106 100 81 60 86 129 137 133 131 135 138 140 140 141 138 135 133 130 128 130 132 131 131 132 133 130 125 122 118 115 117 118 118 118 115 114 111 108 102 98 97 97 98 97 95 98 99 96 96 96 94 92 91 88 88 88 84 82 84 88 93 96 100 103 106 111 110 107 106 107 106
196 223 213 235 239 215 258 274 281 305 60 36 47 96 125 133 142 152 145 147 156 156 159 146 133 109 102 119 93 85 111 125 130 129 133 136 138 141 142 141 137 135 132 128 128 130 131 130 130 131 132 129 125 122 117 116 117 118 119 118 117 114 112 108 103 97 97 99 98 97 97 100 101 100 97 94 93 91 89 85 86 87 86 86 90 97 98 93 96 101 106 112 110 107 108 111 112
209 230 236 245 256 236 250 270 284 324 20 38 61 98 123 144 157 153 148 150 156 158 155 155 137 106 112 108 98 114 120 121 127 130 135 138 140 142 142 142 139 137 134 131 130 130 131 130 130 132 132 130 126 122 118 119 118 118 117 116 115 110 107 105 102 99 101 102 98 98 100 100 98 97 97 96 97 92 87 84 85 86 85 90 96 98 94 91 94 100 106 108 106 104 105 110 115
211 215 266 264 253 259 253 271 324 1 30 43 60 107 131 156 161 147 150 147 154 158 152 160 131 115 124 108 101 120 127 131 134 135 139 140 141 143 143 143 139 138 136 134 132 131 132 131 132 134 136 133 127 123 120 121 120 119 115 112 110 106 105 102 101 103 105 104 100 99 101 101 99 98 98 96 95 92 88 83 83 86 85 86 88 88 90 93 98 102 104 102 100 99 101 111 118
238 216 254 278 263 273 290 335 352 15 45 46 81 103 135 160 152 145 152 143 151 152 153 168 130 123 120 103 96 118 133 140 140 139 141 142 143 144 143 141 140 138 137 135 134 133 133 133 134 138 139 135 129 124 122 121 121 120 116 115 113 108 106 105 104 103 102 102 101 100 101 102 102 100 96 94 93 92 92 89 86 85 85 87 86 88 94 98 100 100 100 98 98 98 102 109 113
261 235 228 272 293 318 326 343 354 28 61 60 107 116 141 154 144 146 150 144 152 151 157 169 140 134 122 106 109 130 142 145 142 142 143 144 144 144 142 141 141 138 137 135 135 135 135 136 137 140 139 135 130 125 122 120 120 119 118 119 119 116 111 109 106 105 105 106 105 102 101 100 102 103 99 96 93 92 93 93 89 86 89 94 93 94 97 99 98 97 98 97 96 98 103 106 106
245 277 268 274 304 328 337 349 14 53 83 58 99 121 139 158 152 147 150 147 151 155 153 154 145 137 113 110 123 139 147 146 144 144 145 146 144 143 142 142 141 138 137 136 134 136 137 138 139 141 139 134 130 127 122 119 119 119 120 120 121 122 114 110 109 108 108 110 109 105 106 107 106 103 98 94 92 94 95 94 94 98 104 105 101 98 97 95 95 97 98 99 99 100 100 101 103
263 314 297 286 313 318 350 12 44 61 79 70 102 127 150 180 151 146 156 146 139 149 143 141 146 126 112 125 137 150 149 147 147 147 146 146 144 144 142 142 141 139 139 137 134 135 137 138 140 139 138 135 132 129 123 119 118 118 119 118 122 124 120 115 109 101 99 103 106 108 113 113 108 100 98 100 103 105 104 102 105 111 112 109 104 99 95 93 91 93 94 93 94 97 97 97 98
284 332 291 287 332 334 19 22 68 85 102 119 134 142 153 165 150 149 150 138 123 129 134 141 153 131 142 154 154 155 151 150 150 149 147 145 145 144 142 143 143 143 142 140 136 137 139 137 139 140 140 140 136 133 129 124 121 118 118 117 119 120 120 120 111 103 102 102 104 107 108 108 108 107 108 111 113 109 105 106 106 105 104 102 101 99 96 93 89 87 89 89 89 95 96 94 95
252 306 280 280 347 6 24 21 64 94 106 124 150 155 140 142 151 137 109 122 126 132 142 148 161 164 158 158 151 151 151 150 151 149 147 145 145 143 143 146 146 146 144 143 139 139 142 140 142 143 145 142 136 135 132 129 124 119 117 115 114 113 117 120 117 117 119 117 115 108 102 105 110 112 112 114 113 107 105 104 100 98 97 95 95 96 95 94 93 88 88 94 96 100 98 95 94
237 245 260 286 17 19 25 20 34 83 120 127 154 155 137 142 136 101 104 137 131 134 144 132 151 182 149 142 143 148 150 150 151 150 148 149 150 148 149 150 151 150 146 146 144 144 145 143 144 144 145 138 134 135 128 126 123 119 115 113 115 115 114 115 114 118 119 120 120 112 107 110 111 109 110 110 108 106 105 103 100 99 100 98 92 90 89 91 94 90 92 99 100 101 100 98 95
237 240 246 17 46 34 27 22 22 63 129 138 159 150 141 148 136 130 149 140 127 130 123 107 122 128 125 131 139 146 149 151 154 154 152 155 156 155 154 155 159 156 150 149 148 149 147 146 146 144 142 137 139 135 123 125 123 120 120 115 114 113 110 110 111 114 115 118 119 115 115 114 110 110 112 111 108 108 106 103 103 102 103 104 99 92 87 88 90 92 97 98 94 92 91 89 88
232 263 264 66 57 51 34 24 24 22 94 133 154 153 150 147 142 161 160 139 138 137 127 126 126 121 125 135 142 147 152 154 158 159 157 159 160 159 157 159 162 159 155 153 152 152 149 149 149 145 142 141 145 136 125 129 127 125 124 118 115 111 108 109 113 116 119 122 121 121 119 114 112 115 115 112 110 110 107 105 104 100 99 101 102 100 97 99 103 106 105 96 87 82 77 77 83
218 245 251 80 64 57 47 25 26 21 47 137 147 156 161 143 145 178 163 147 153 148 144 143 137 138 140 143 147 151 155 157 160 162 161 162 164 162 159 161 163 162 160 154 153 154 151 151 149 144 144 147 148 138 130 133 134 133 129 125 124 119 117 115 115 119 123 124 123 123 119 115 115 113 111 106 105 108 106 103 99 94 93 94 99 104 106 109 113 112 111 105 98 91 86 88 96
201 236 288 77 68 27 41 23 27 34 44 142 145 157 167 146 152 184 158 153 163 156 156 148 144 149 149 149 152 156 157 159 164 165 164 166 166 164 161 162 163 163 160 154 154 156 154 153 149 147 149 153 151 142 136 138 137 136 134 132 130 128 127 124 123 124 125 124 119 119 117 115 115 114 112 107 107 109 107 102 95 93 93 92 94 101 103 104 106 104 106 110 110 107 105 105 106
233 236 279 45 325 355 21 21 29 35 66 135 160 166 155 145 160 187 165 159 166 150 151 146 148 153 153 153 154 158 160 162 168 167 167 169 168 166 163 162 161 161 161 159 158 156 156 154 152 152 154 155 153 145 139 141 140 138 137 134 133 132 131 130 130 130 130 128 121 119 118 116 115 112 110 108 106 104 101 98 96 97 96 94 94 94 92 90 94 94 94 100 104 105 105 106 108
233 220 218 270 308 336 340 4 26 21 92 147 174 153 143 158 166 193 182 145 68 126 141 146 150 153 154 155 157 161 163 165 170 170 169 171 171 169 164 163 161 162 164 163 158 156 158 158 157 156 155 156 153 146 143 145 143 140 139 137 135 134 135 136 133 133 133 131 126 122 118 117 114 109 106 103 101 98 96 96 97 99 97 94 93 90 88 85 84 84 87 92 97 102 105 108 109
241 249 210 258 317 306 302 334 355 320 141 150 161 145 160 180 165 186 188 104 88 125 138 146 147 153 155 158 161 162 164 168 171 170 170 171 173 169 164 163 160 161 163 163 160 159 163 163 162 160 157 157 155 150 148 150 146 141 141 137 135 135 137 135 129 131 132 130 127 122 117 114 111 109 108 102 98 97 97 100 101 101 98 94 91 88 85 82 80 79 80 85 90 97 103 107 109
233 250 264 271 281 282 284 303 282 243 187 146 170 172 169 179 160 172 169 110 123 136 140 145 147 155 158 161 163 163 166 170 170 170 171 171 171 169 167 164 160 161 164 164 164 165 167 166 166 164 159 158 157 155 151 151 147 140 141 137 134 135 134 130 129 130 129 126 122 118 114 111 112 110 108 105 103 102 103 105 104 101 97 92 89 85 81 78 77 74 74 78 82 88 95 100 104
216 241 273 281 283 291 295 304 268 214 178 157 182 181 148 160 180 165 149 122 137 143 144 147 153 160 161 163 165 165 167 171 172 170 170 170 170 171 171 167 163 164 164 166 167 167 168 168 169 165 161 161 158 156 154 153 145 138 139 137 135 133 129 127 128 128 125 123 122 121 114 109 112 111 109 108 109 109 108 106 104 101 95 89 86 81 76 74 75 73 71 71 72 78 85 90 95
188 252 275 274 282 296 308 317 257 189 165 172 182 163 139 163 201 181 144 143 148 147 148 151 159 164 164 166 166 168 170 172 173 171 169 169 172 174 173 171 167 165 164 167 169 168 169 168 168 165 163 163 160 157 157 153 142 138 142 139 135 130 127 127 128 128 124 122 124 122 117 111 108 111 113 114 116 116 114 108 102 98 91 85 81 77 73 72 73 72 69 67 66 70 76 80 88
265 271 277 260 261 265 325 5 164 176 161 179 171 147 154 179 210 196 148 156 159 152 153 157 164 166 167 168 166 170 173 172 173 175 173 171 174 176 175 175 171 167 166 170 168 167 171 170 166 165 166 167 164 161 159 153 144 143 146 140 135 133 132 131 130 130 126 125 124 122 121 116 109 111 114 115 121 120 115 110 100 94 90 83 75 71 70 71 75 73 68 66 66 69 73 75 83
259 263 269 249 230 189 90 92 154 180 155 174 170 151 170 186 205 183 151 160 165 159 158 162 167 165 168 170 166 172 174 174 177 179 178 175 176 178 178 177 174 170 168 170 167 167 172 170 166 165 168 170 168 163 159 155 149 148 147 142 140 140 139 135 131 130 129 126 123 124 125 119 114 114 116 117 120 119 112 107 100 95 89 82 75 71 70 74 78 77 73 70 69 71 73 74 82
244 241 253 248 218 174 109 112 170 180 145 171 184 176 180 180 189 164 152 166 168 165 165 166 169 165 169 171 168 174 175 176 180 182 180 176 177 179 179 178 177 172 167 170 170 170 170 167 168 167 170 173 171 166 160 158 154 151 149 146 146 147 144 138 135 133 132 132 131 133 130 124 122 120 121 119 117 119 115 105 100 98 90 83 82 76 75 79 76 72 70 68 68 67 67 72 83
226 222 226 238 222 147 112 142 185 168 136 176 191 157 140 166 172 155 152 172 172 169 169 169 170 168 171 172 172 174 176 180 182 183 180 178 179 179 180 178 178 175 168 172 172 171 170 169 170 168 171 174 173 169 162 161 158 154 152 150 152 152 149 144 141 140 139 140 140 141 141 133 128 125 125 121 116 120 118 110 103 98 92 89 86 78 74 77 70 64 59 59 64 60 63 74 84
212 218 210 221 217 134 131 158 187 171 135 186 203 143 136 154 156 154 159 177 177 174 172 172 172 171 174 175 178 177 176 181 183 184 182 180 181 180 181 179 179 178 172 174 173 173 172 171 173 171 171 173 174 172 165 162 161 157 156 154 157 158 155 151 148 145 144 146 144 143 141 135 134 132 130 126 119 117 116 112 106 101 98 93 87 77 74 73 65 63 52 53 60 53 61 75 84
202 220 215 210 201 176 160 143 160 188 150 188 202 188 125 135 144 156 170 178 180 179 173 175 174 173 177 178 183 181 176 180 184 187 183 182 183 182 182 181 181 180 176 176 174 175 174 172 176 175 172 172 173 172 168 165 165 162 160 159 161 162 161 157 153 149 147 148 145 143 141 137 143 144 139 133 123 121 118 114 111 109 105 97 90 79 78 71 60 62 55 53 53 46 58 72 80
192 207 214 209 208 197 160 138 152 179 205 202 198 199 126 118 144 159 176 181 181 183 177 176 177 176 181 182 186 184 180 182 185 186 184 184 185 184 184 182 183 182 178 179 177 178 177 173 176 176 173 172 171 172 171 169 168 166 164 164 165 166 167 161 156 155 154 150 145 146 146 143 147 150 148 140 128 128 123 118 117 115 111 99 94 87 82 72 59 62 63 59 49 44 55 61 66
196 196 205 199 208 221 156 140 153 174 214 218 210 217 155 140 153 157 174 184 181 184 182 179 178 180 184 185 189 187 182 184 185 185 184 184 184 185 185 183 183 184 182 180 179 180 179 175 174 173 173 172 170 171 172 171 171 170 169 168 169 171 172 167 163 162 161 155 149 151 151 148 153 154 151 145 138 134 130 127 124 121 118 102 88 90 86 79 68 64 70 72 57 47 49 47 54
203 192 208 203 196 195 124 117 148 175 206 219 220 234 171 156 159 160 170 179 184 185 185 185 179 182 187 189 192 189 185 185 183 183 183 183 183 183 183 182 184 185 184 181 178 180 181 178 174 172 175 174 170 171 173 174 174 173 173 173 174 176 175 173 172 169 169 161 155 157 159 158 161 159 155 151 144 137 133 131 128 124 121 111 92 84 83 81 73 68 70 71 63 52 45 36 39
206 185 196 201 192 150 113 120 149 175 205 218 217 238 216 161 158 164 167 173 184 185 185 190 184 184 188 192 195 190 187 184 179 181 182 182 181 181 180 181 183 184 184 182 180 182 183 180 176 173 175 176 174 174 176 177 177 175 176 177 178 178 176 176 175 175 173 163 158 162 166 167 167 165 163 158 151 145 138 133 130 128 125 121 106 93 86 86 83 77 75 68 60 54 39 27 29
212 204 186 197 205 144 110 130 151 183 215 200 198 233 227 184 167 166 170 179 184 185 186 189 189 188 188 194 197 191 187 184 178 178 182 183 181 179 179 179 182 183 183 183 183 184 185 184 181 176 175 178 180 179 178 179 180 178 177 179 179 175 174 176 174 175 172 161 162 169 170 173 174 171 171 165 157 153 146 137 133 132 134 130 119 111 101 96 95 90 93 102 128 91 27 29 34
210 215 202 205 198 149 118 135 151 188 229 170 154 244 214 175 178 173 180 190 187 186 186 185 190 190 189 196 197 193 189 185 182 180 182 185 183 180 178 179 184 184 182 184 185 185 185 187 185 180 178 180 183 183 181 181 180 180 179 178 178 174 174 176 169 168 170 162 164 173 176 178 179 177 178 171 162 157 151 144 143 142 143 144 134 122 111 104 104 104 115 122 167 163 143 80 52
215 210 212 202 179 182 161 138 148 172 252 262 185 265 225 164 178 180 188 195 190 190 186 183 190 190 192 196 193 195 193 186 186 185 184 185 183 182 181 181 183 185 185 185 185 186 186 188 186 184 182 181 183 184 183 181 178 178 178 175 175 172 171 174 171 170 175 172 171 176 180 182 181 180 181 176 168 163 155 149 150 151 151 151 144 123 113 117 121 130 133 123 200 179 139 128 92
212 213 224 201 169 207 203 116 159 192 214 236 263 251 218 165 182 183 186 193 192 191 188 187 191 191 195 197 191 192 194 191 190 188 187 186 185 184 183 184 185 186 187 187 186 187 188 189 187 185 185 184 184 183 181 179 176 177 178 176 177 176 176 180 183 183 183 185 185 183 184 184 182 180 181 180 174 168 161 157 157 158 161 158 151 133 122 133 139 154 152 144 197 199 132 142 123
207 211 226 231 165 201 189 137 214 222 193 187 252 248 194 161 194 181 171 186 191 188 191 193 193 191 195 200 195 190 190 195 197 193 189 188 187 186 184 186 189 189 189 189 188 188 188 188 186 186 187 187 186 183 181 180 179 182 185 186 187 186 188 190 192 191 185 187 190 184 181 182 183 180 180 181 176 171 167 166 169 168 169 168 167 162 146 156 164 163 164 165 176 191 196 165 151
210 192 203 221 233 219 219 216 226 240 191 142 244 262 197 169 180 158 154 173 181 181 193 197 195 196 198 201 199 194 193 194 196 196 193 191 188 188 187 188 191 192 190 190 190 190 189 188 186 186 188 188 188 184 183 184 185 187 190 193 194 193 195 195 196 195 186 185 187 181 179 180 184 183 180 181 178 174 174 176 183 180 177 178 174 175 175 174 162 152 162 168 163 172 207 225 201
197 131 179 209 224 230 226 229 232 252 318 156 209 251 253 185 133 101 139 153 159 171 191 201 200 204 205 206 203 200 200 195 192 194 195 194 191 190 190 190 193 194 190 190 191 191 189 188 187 187 188 188 188 186 185 188 190 191 193 195 198 200 201 197 195 197 187 183 184 182 182 180 183 186 181 182 181 179 182 185 189 185 183 183 179 182 186 174 148 144 160 168 170 177 193 225 225
201 110 186 214 217 237 232 229 232 239 281 232 195 192 246 206 121 99 125 126 128 151 182 202 204 206 208 209 207 205 205 200 196 196 196 195 193 192 192 191 194 195 192 191 192 191 189 189 188 187 188 188 188 187 187 192 194 193 194 196 198 201 205 202 197 198 193 186 187 186 185 182 182 188 187 186 186 186 190 192 192 189 187 187 190 191 183 173 163 159 168 176 183 187 188 208 218
215 134 211 218 207 232 233 230 227 206 232 237 195 183 230 205 133 128 105 93 80 89 144 201 205 207 208 209 207 204 204 203 202 200 198 198 194 193 192 191 193 196 194 191 191 191 188 188 188 187 189 189 189 189 189 194 195 195 196 197 198 199 202 204 200 199 197 194 193 190 190 189 186 189 190 191 191 192 196 197 195 193 193 195 197 194 181 179 177 170 174 180 186 190 189 200 212
217 185 204 201 192 206 216 223 224 211 223 231 209 196 222 216 118 98 83 65 30 24 28 14 315 216 210 211 209 206 203 202 203 200 199 201 198 194 193 192 193 194 194 191 191 190 187 186 187 187 189 189 188 189 191 195 196 198 201 199 199 198 198 201 201 200 200 199 199 195 195 196 194 193 190 191 193 196 199 200 199 197 198 200 199 195 189 184 181 175 172 176 185 196 197 202 216
211 205 200 188 178 184 201 200 207 220 222 221 208 195 220 223 112 80 81 59 31 20 15 9 358 323 246 223 215 209 207 202 201 198 196 201 199 196 196 195 193 193 193 191 191 190 187 187 186 186 188 189 188 190 192 196 198 201 204 203 202 201 200 202 203 204 203 204 204 200 199 200 202 201 195 192 194 195 198 201 202 202 202 202 199 195 191 189 185 176 173 177 184 194 201 204 212
207 204 197 190 177 178 199 193 195 218 222 208 197 195 216 194 90 75 68 52 34 27 17 11 0 345 324 272 231 212 209 206 203 200 195 198 197 196 198 196 194 193 193 192 192 191 188 187 186 185 187 189 189 191 193 195 199 202 205 205 205 204 204 205 206 207 207 207 207 204 202 203 205 207 203 201 197 194 197 202 204 207 208 206 201 194 191 191 194 188 183 186 186 191 203 207 213
201 202 195 193 187 183 196 195 192 209 206 180 179 194 198 136 90 66 66 52 34 34 27 21 13 353 334 301 255 218 209 207 206 203 198 197 195 195 197 196 194 194 194 193 192 192 190 187 187 186 187 189 189 191 193 196 199 202 204 205 206 205 206 208 209 210 209 208 209 207 207 207 209 211 210 207 202 196 198 202 205 210 213 211 206 201 195 193 198 200 195 196 194 194 205 212 217
197 207 201 204 210 196 195 197 193 196 191 171 168 192 204 161 113 72 73 62 43 38 31 30 25 9 357 339 287 221 208 207 208 207 204 201 196 194 195 194 194 194 194 194 194 192 190 187 187 187 188 188 189 191 192 195 199 201 203 204 206 206 207 209 211 212 212 211 211 210 210 212 214 214 213 210 207 203 201 202 205 211 216 216 213 209 205 201 203 205 204 207 206 201 210 219 219
187 204 209 212 227 223 213 207 196 193 186 175 176 176 130 131 117 87 72 64 51 40 31 30 27 20 18 17 8 335 222 209 208 207 209 207 199 194 194 194 194 193 194 195 195 192 190 188 187 188 189 188 189 191 192 195 198 199 201 203 205 206 207 210 211 212 213 213 213 211 211 214 216 216 214 210 210 208 206 206 207 211 214 217 219 216 215 212 209 212 213 213 215 211 211 219 221
177 196 209 195 277 263 248 197 189 202 196 178 182 150 107 134 130 82 57 52 44 34 29 27 24 23 24 23 14 1 345 293 237 218 212 209 203 199 196 196 194 193 194 195 195 193 191 189 188 189 190 190 190 191 192 195 196 198 201 202 204 206 208 211 213 213 214 214 215 215 214 215 216 218 218 215 215 214 212 211 211 213 214 217 221 220 220 219 217 220 222 220 222 219 212 218 228
213 196 190 145 44 272 263 217 184 199 199 175 185 171 140 168 169 57 30 28 28 23 25 25 23 23 21 19 15 5 354 339 321 276 222 206 206 206 201 200 199 195 194 194 194 194 192 192 191 190 191 192 193 194 195 195 195 197 200 202 205 207 210 213 215 215 216 216 216 217 217 218 217 218 220 221 219 216 216 216 215 215 215 217 220 221 222 222 222 227 230 229 229 226 220 222 228
300 272 168 169 216 213 218 230 193 194 203 186 184 178 145 144 127 37 20 18 16 14 21 23 21 20 17 15 13 9 3 349 335 311 251 210 205 208 205 205 204 200 198 196 194 194 195 196 196 195 194 194 195 197 197 196 197 198 201 203 206 208 211 213 215 216 217 217 217 216 217 218 217 217 218 219 218 218 219 219 218 218 217 218 220 221 222 222 225 229 231 232 229 226 228 231 229
235 244 195 207 242 215 206 223 210 203 209 193 181 179 140 75 49 30 27 25 16 14 22 23 20 19 16 15 12 10 9 1 347 313 260 227 207 206 208 208 207 206 202 198 196 196 197 199 199 200 199 197 198 198 196 196 199 201 201 202 204 206 209 211 212 213 215 217 217 217 218 218 218 218 217 217 219 221 222 221 221 221 219 219 220 221 222 222 225 228 232 235 231 224 228 234 234
205 210 196 191 220 247 228 220 225 241 225 199 191 187 133 83 52 33 42 41 27 24 26 26 22 19 17 18 15 14 14 10 6 352 278 240 216 205 207 208 212 214 207 200 199 199 200 202 202 203 202 201 202 202 199 198 199 201 201 200 202 204 206 208 210 210 213 216 217 218 220 218 218 218 218 218 219 220 222 222 223 224 222 221 219 220 221 222 224 227 230 236 235 230 231 234 236
356 237 197 202 221 224 214 208 210 245 264 238 207 182 117 87 56 51 57 52 45 36 31 33 28 21 20 20 17 19 18 16 15 15 14 2 288 214 205 203 210 216 211 204 202 201 202 203 203 204 203 204 205 204 202 200 200 201 201 202 202 202 204 206 208 210 212 215 217 219 219 218 218 219 219 221 221 221 221 222 223 225 224 223 221 221 222 222 224 227 228 233 233 232 233 234 234